[[{"header":{"parameterUnit":"m.s-1","parameterCategory":1,"la1":30.2992,"la2":30.254,"lo1":-89.0895,"lo2":-89.0443,"dy":0.0025,"dx":0.0025,"nx":19,"ny":19,"refTime":"2026-03-18T09:00:00:Z","depth":0,"parameterNumber":2,"parameterNumberName":"U-component_of_WINDS"},"data":[0,0,0,-1.2073,-1.2074,-1.2127,-1.2127,-1.2202,-1.2203,0,0,0,0,0,0,0,0,0,0,0,-1.2063,-1.2064,-1.2073,-1.2074,-1.2127,-1.2127,-1.2202,-1.2203,0,0,0,0,0,0,0,0,0,0,0,-1.2063,-1.2064,-1.2065,-1.2075,-1.2127,-1.2127,-1.2202,-1.2159,0,0,0,0,0,0,0,0,0,0,-1.2107,-1.2104,-1.2064,-1.2065,-1.2075,-1.2126,-1.2127,-1.2157,-1.2162,-1.2182,0,-1.2202,0,-1.2203,-1.2208,-1.2208,0,0,0,-1.207,-1.21,-1.2108,-1.2065,-1.2076,-1.2126,-1.2102,-1.216,-1.2165,-1.2188,-1.2203,-1.2205,-1.2205,-1.2209,-1.2209,-1.2338,-1.2338,0,0,-1.2068,-1.2076,-1.2105,-1.2112,-1.2105,-1.21,-1.2104,-1.2163,-1.2179,-1.2203,-1.2207,-1.2206,-1.2209,-1.221,-1.2337,-1.2338,0,0,0,-1.2062,-1.2074,-1.2081,-1.2109,-1.2118,-1.2102,-1.2106,-1.2176,-1.2178,-1.2208,-1.2207,-1.221,-1.2211,-1.2336,-1.2337,-1.2383,0,0,0,-1.206,-1.2071,-1.208,-1.2086,-1.2117,-1.2148,-1.2118,-1.2174,-1.218,-1.2206,-1.221,-1.2212,-1.2335,-1.2337,-1.238,-1.2404,0,0,0,-1.2058,-1.207,-1.208,-1.2086,-1.2109,-1.2147,-1.2152,-1.2175,-1.218,-1.2209,-1.2212,-1.2335,-1.2336,-1.2378,-1.24,-1.2439,0,0,0,-1.2058,-1.2122,-1.2081,-1.2151,-1.2108,-1.2175,-1.2151,-1.2201,-1.2231,-1.221,-1.2335,-1.2337,-1.2377,-1.2397,-1.2436,-1.2474,-1.249,0,0,-1.2143,-1.2132,-1.2173,-1.2138,-1.2213,-1.2167,-1.2249,-1.2269,-1.2265,-1.2313,-1.2316,-1.2381,-1.2399,-1.2439,-1.2581,-1.2594,0,0,0,-1.2203,-1.2232,-1.225,-1.2278,-1.2295,-1.231,-1.2316,-1.2323,-1.2364,-1.2292,-1.2406,-1.2417,-1.244,-1.2457,-1.2468,-1.2486,-1.2346,-1.2346,-1.2345,-1.2335,-1.2324,-1.239,-1.2385,-1.2413,-1.2417,-1.2438,-1.2449,-1.2431,-1.2458,-1.2473,-1.256,-1.2581,-1.259,-1.2609,-1.2492,-1.2492,-1.2492,-1.2493,-1.2458,-1.2497,-1.2469,-1.2523,-1.2511,-1.2556,-1.2562,-1.2547,-1.2587,-1.2549,-1.2569,-1.2528,-1.2604,-1.262,-1.2496,-1.2495,-1.2495,-1.2495,-1.2494,-1.2543,-1.2559,-1.2566,-1.2604,-1.2634,-1.2627,-1.2665,-1.2653,-1.2642,-1.2662,-1.2674,-1.2673,-1.267,-1.2668,-1.2669,-1.2669,-1.2669,-1.2669,-1.267,-1.2629,-1.2634,-1.2668,-1.2688,-1.2703,-1.2722,-1.2725,-1.274,-1.2753,-1.2741,-1.2741,-1.2719,-1.2614,-1.2587,-1.2674,-1.2673,-1.2673,-1.2672,-1.2672,-1.2756,-1.2725,-1.2777,-1.2792,-1.2813,-1.2843,-1.2826,-1.2856,-1.2866,-1.2885,-1.2859,-1.2783,-1.2772,-1.2763,-1.2741,-1.2862,-1.2862,-1.2862,-1.2862,-1.2828,-1.282,-1.2869,-1.2893,-1.2916,-1.2905,-1.2963,-1.2965,-1.2962,-1.2967,-1.2948,-1.2918,-1.2909,-1.2902,-1.289,-1.2869,-1.3021,-1.3021,-1.3021,-1.2905,-1.2898,-1.295,-1.2946,-1.2961,-1.2974,-1.3027,-1.3055,-1.3046,-1.3027,-1.2971,-1.2964,-1.2915,-1.29,-1.288,-1.2862,-1.2823,0,0]},{"header":{"parameterUnit":"m.s-1","parameterCategory":1,"la1":30.2992,"la2":30.254,"lo1":-89.0895,"lo2":-89.0443,"dy":0.0025,"dx":0.0025,"nx":19,"ny":19,"refTime":"2026-03-18T09:00:00:Z","depth":0,"parameterNumber":3,"parameterNumberName":"V-component_of_WINDS"},"data":[0,0,0,-4.6135,-4.614,-4.6325,-4.6325,-4.6572,-4.6574,0,0,0,0,0,0,0,0,0,0,0,-4.6089,-4.6091,-4.6135,-4.614,-4.6325,-4.6326,-4.6571,-4.6574,0,0,0,0,0,0,0,0,0,0,0,-4.6088,-4.6091,-4.6093,-4.6141,-4.6325,-4.6326,-4.6571,-4.6427,0,0,0,0,0,0,0,0,0,0,-4.6245,-4.6212,-4.609,-4.6093,-4.6142,-4.6324,-4.6326,-4.642,-4.6436,-4.6493,0,-4.6548,0,-4.6565,-4.6591,-4.6592,0,0,0,-4.6133,-4.6199,-4.6241,-4.6094,-4.6144,-4.6324,-4.6239,-4.6429,-4.6447,-4.6514,-4.6551,-4.656,-4.6569,-4.6593,-4.6594,-4.6949,-4.695,0,0,-4.6123,-4.6127,-4.6228,-4.6253,-4.6228,-4.6234,-4.6245,-4.644,-4.6479,-4.6552,-4.6565,-4.6573,-4.6595,-4.6597,-4.6947,-4.6949,0,0,0,-4.6098,-4.612,-4.6157,-4.6243,-4.6276,-4.6239,-4.6253,-4.6471,-4.6483,-4.6568,-4.6576,-4.6596,-4.6599,-4.6945,-4.6948,-4.7049,0,0,0,-4.6092,-4.6106,-4.6153,-4.6157,-4.6273,-4.6376,-4.628,-4.6469,-4.6491,-4.6575,-4.6596,-4.6602,-4.6942,-4.6946,-4.7042,-4.7096,0,0,0,-4.6074,-4.6103,-4.6133,-4.6157,-4.6237,-4.6373,-4.6396,-4.6474,-4.6496,-4.6592,-4.6602,-4.6941,-4.6945,-4.7035,-4.7085,-4.7189,0,0,0,-4.6056,-4.6222,-4.6135,-4.6322,-4.6236,-4.6436,-4.6395,-4.6543,-4.6638,-4.6597,-4.6943,-4.6947,-4.7033,-4.7079,-4.7182,-4.7277,-4.7318,0,0,-4.6267,-4.6247,-4.6357,-4.6285,-4.6501,-4.6407,-4.6637,-4.672,-4.6724,-4.6873,-4.6881,-4.7044,-4.7084,-4.7188,-4.7544,-4.7576,0,0,0,-4.6425,-4.6503,-4.656,-4.6651,-4.6718,-4.6779,-4.6826,-4.6855,-4.6981,-4.6802,-4.711,-4.7134,-4.7195,-4.724,-4.7267,-4.7317,-4.6969,-4.6968,-4.6968,-4.6728,-4.6726,-4.6906,-4.6925,-4.7013,-4.7059,-4.7129,-4.7176,-4.7149,-4.7221,-4.7265,-4.7481,-4.7534,-4.7555,-4.7608,-4.7315,-4.7316,-4.7316,-4.7317,-4.7035,-4.7146,-4.7103,-4.7263,-4.7258,-4.7391,-4.744,-4.7415,-4.7536,-4.7449,-4.7502,-4.7405,-4.759,-4.7636,-4.7324,-4.7323,-4.7322,-4.7321,-4.7321,-4.7233,-4.7286,-4.732,-4.7449,-4.7548,-4.756,-4.7679,-4.767,-4.7662,-4.7715,-4.7759,-4.7757,-4.7753,-4.7736,-4.7737,-4.7738,-4.7739,-4.7739,-4.774,-4.7425,-4.746,-4.7562,-4.7646,-4.7701,-4.7773,-4.7818,-4.7872,-4.7929,-4.7913,-4.7913,-4.7876,-4.761,-4.7542,-4.7751,-4.7749,-4.7748,-4.7747,-4.7746,-4.7736,-4.7664,-4.7821,-4.7877,-4.7972,-4.807,-4.8057,-4.8166,-4.8209,-4.8267,-4.8218,-4.8024,-4.8002,-4.798,-4.7924,-4.822,-4.822,-4.822,-4.822,-4.7902,-4.789,-4.8048,-4.8137,-4.8223,-4.8227,-4.8401,-4.8436,-4.8461,-4.8487,-4.8443,-4.8368,-4.8346,-4.8338,-4.8308,-4.8255,-4.8629,-4.8629,-4.863,-4.8092,-4.8088,-4.824,-4.8265,-4.8338,-4.84,-4.8563,-4.8664,-4.8678,-4.8646,-4.8506,-4.8489,-4.8368,-4.8329,-4.8294,-4.8249,-4.8152,0,0]}]]